Time,TemperatureF,DewpointF,PressureIn,WindDirection,WindDirectionDegrees,WindSpeedMPH,WindSpeedGustMPH,Humidity,HourlyPrecipIn,Conditions,Clouds,dailyrainin,SoftwareType,DateUTC
2013-05-10 00:00:00,64.0,55.0,29.82,SW,222,0.0,-999.0,73,-99.99,,,0.00,weatherlink.com 1.10,2013-05-10 04:00:00,
2013-05-10 00:15:00,63.9,55.0,29.82,SW,222,0.0,-999.0,73,-99.99,,,0.00,weatherlink.com 1.10,2013-05-10 04:15:00,
2013-05-10 00:30:00,63.6,55.0,29.82,SW,222,0.0,-999.0,74,-99.99,,,0.01,weatherlink.com 1.10,2013-05-10 04:30:00,
2013-05-10 00:45:00,63.3,55.0,29.83,SE,124,0.0,-999.0,75,-99.99,,,0.01,weatherlink.com 1.10,2013-05-10 04:45:00,
2013-05-10 01:00:00,62.7,55.0,29.85,South,187,0.0,-999.0,77,-99.99,,,0.06,weatherlink.com 1.10,2013-05-10 05:00:00,
2013-05-10 01:15:00,62.0,55.0,29.84,SSW,194,4.0,-999.0,78,-99.99,,,0.10,weatherlink.com 1.10,2013-05-10 05:15:00,
2013-05-10 01:30:00,61.5,55.0,29.83,SSW,195,0.0,-999.0,79,-99.99,,,0.15,weatherlink.com 1.10,2013-05-10 05:30:00,
2013-05-10 01:45:00,61.2,55.0,29.82,SSE,148,0.0,-999.0,80,-99.99,,,0.20,weatherlink.com 1.10,2013-05-10 05:45:00,
2013-05-10 02:00:00,60.9,55.0,29.81,SE,126,0.0,-999.0,81,-99.99,,,0.23,weatherlink.com 1.10,2013-05-10 06:00:00,
2013-05-10 02:15:00,60.7,55.0,29.79,ESE,121,0.0,-999.0,82,-99.99,,,0.26,weatherlink.com 1.10,2013-05-10 06:15:00,
2013-05-10 02:30:00,60.5,55.0,29.77,SE,128,3.0,-999.0,83,-99.99,,,0.26,weatherlink.com 1.10,2013-05-10 06:30:00,
2013-05-10 02:45:00,60.4,56.0,29.76,SSE,165,0.0,-999.0,84,-99.99,,,0.26,weatherlink.com 1.10,2013-05-10 06:45:00,
2013-05-10 03:00:00,60.2,55.0,29.76,SSE,167,2.0,-999.0,84,-99.99,,,0.26,weatherlink.com 1.10,2013-05-10 07:00:00,
2013-05-10 03:15:00,60.2,56.0,29.75,SSE,166,0.0,-999.0,85,-99.99,,,0.26,weatherlink.com 1.10,2013-05-10 07:15:00,
2013-05-10 03:30:00,60.2,56.0,29.75,SSE,167,7.0,-999.0,85,-99.99,,,0.26,weatherlink.com 1.10,2013-05-10 07:30:00,
2013-05-10 03:45:00,60.1,56.0,29.75,SSE,161,0.0,-999.0,85,-99.99,,,0.26,weatherlink.com 1.10,2013-05-10 07:45:00,
2013-05-10 04:00:00,60.1,56.0,29.75,South,169,0.0,-999.0,85,-99.99,,,0.26,weatherlink.com 1.10,2013-05-10 08:00:00,
2013-05-10 04:15:00,60.0,56.0,29.76,SSW,199,2.0,-999.0,85,-99.99,,,0.26,weatherlink.com 1.10,2013-05-10 08:15:00,
2013-05-10 04:30:00,60.2,56.0,29.76,South,170,4.0,-999.0,86,-99.99,,,0.26,weatherlink.com 1.10,2013-05-10 08:30:00,
2013-05-10 04:45:00,60.4,56.0,29.75,SSW,198,0.0,-999.0,86,-99.99,,,0.26,weatherlink.com 1.10,2013-05-10 08:45:00,
2013-05-10 05:00:00,60.6,56.0,29.75,SE,140,0.0,-999.0,86,-99.99,,,0.26,weatherlink.com 1.10,2013-05-10 09:00:00,
2013-05-10 05:15:00,60.8,57.0,29.75,SW,224,11.0,-999.0,86,-99.99,,,0.26,weatherlink.com 1.10,2013-05-10 09:15:00,
2013-05-10 05:30:00,60.9,57.0,29.74,SW,229,4.0,-999.0,86,-99.99,,,0.26,weatherlink.com 1.10,2013-05-10 09:30:00,
2013-05-10 05:45:00,60.9,57.0,29.74,SSW,199,0.0,-999.0,86,-99.99,,,0.26,weatherlink.com 1.10,2013-05-10 09:45:00,
2013-05-10 06:00:00,60.9,57.0,29.73,SW,219,6.0,-999.0,86,-99.99,,,0.26,weatherlink.com 1.10,2013-05-10 10:00:00,
2013-05-10 06:15:00,60.8,57.0,29.73,South,184,3.0,-999.0,86,-99.99,,,0.26,weatherlink.com 1.10,2013-05-10 10:15:00,
2013-05-10 06:30:00,60.8,57.0,29.73,SW,223,8.0,-999.0,86,-99.99,,,0.26,weatherlink.com 1.10,2013-05-10 10:30:00,
2013-05-10 06:45:00,60.9,57.0,29.74,SW,223,0.0,-999.0,86,-99.99,,,0.26,weatherlink.com 1.10,2013-05-10 10:45:00,
2013-05-10 07:00:00,60.9,57.0,29.74,SW,225,0.0,-999.0,86,-99.99,,,0.26,weatherlink.com 1.10,2013-05-10 11:00:00,
2013-05-10 07:15:00,60.9,57.0,29.74,SW,217,0.0,-999.0,86,-99.99,,,0.26,weatherlink.com 1.10,2013-05-10 11:15:00,
2013-05-10 07:30:00,61.2,57.0,29.74,SSW,211,0.0,-999.0,87,-99.99,,,0.26,weatherlink.com 1.10,2013-05-10 11:30:00,
2013-05-10 07:45:00,61.4,58.0,29.74,South,177,0.0,-999.0,87,-99.99,,,0.26,weatherlink.com 1.10,2013-05-10 11:45:00,
2013-05-10 08:00:00,61.6,58.0,29.75,SW,214,4.0,-999.0,87,-99.99,,,0.26,weatherlink.com 1.10,2013-05-10 12:00:00,
2013-05-10 08:15:00,62.0,58.0,29.74,SSW,211,0.0,-999.0,87,-99.99,,,0.26,weatherlink.com 1.10,2013-05-10 12:15:00,
2013-05-10 08:30:00,62.4,59.0,29.73,SW,223,2.0,-999.0,87,-99.99,,,0.26,weatherlink.com 1.10,2013-05-10 12:30:00,
2013-05-10 08:45:00,62.9,59.0,29.75,SW,226,3.0,-999.0,87,-99.99,,,0.26,weatherlink.com 1.10,2013-05-10 12:45:00,
2013-05-10 09:00:00,63.4,60.0,29.74,SW,217,4.0,-999.0,87,-99.99,,,0.26,weatherlink.com 1.10,2013-05-10 13:00:00,
2013-05-10 09:15:00,64.1,60.0,29.74,SSW,213,0.0,-999.0,87,-99.99,,,0.26,weatherlink.com 1.10,2013-05-10 13:15:00,
2013-05-10 09:30:00,64.5,60.0,29.74,SW,224,7.0,-999.0,86,-99.99,,,0.26,weatherlink.com 1.10,2013-05-10 13:30:00,
2013-05-10 09:45:00,65.1,61.0,29.74,South,183,0.0,-999.0,86,-99.99,,,0.26,weatherlink.com 1.10,2013-05-10 13:45:00,
2013-05-10 10:00:00,65.8,62.0,29.73,SE,130,3.0,-999.0,86,-99.99,,,0.26,weatherlink.com 1.10,2013-05-10 14:00:00,
2013-05-10 10:15:00,66.5,62.0,29.73,SSE,147,1.0,-999.0,85,-99.99,,,0.26,weatherlink.com 1.10,2013-05-10 14:15:00,
2013-05-10 10:30:00,66.8,62.0,29.73,SW,216,11.0,-999.0,85,-99.99,,,0.26,weatherlink.com 1.10,2013-05-10 14:30:00,
2013-05-10 10:45:00,67.0,62.0,29.73,SW,219,5.0,-999.0,84,-99.99,,,0.26,weatherlink.com 1.10,2013-05-10 14:45:00,
2013-05-10 11:00:00,67.5,63.0,29.73,WSW,244,4.0,-999.0,84,-99.99,,,0.26,weatherlink.com 1.10,2013-05-10 15:00:00,
2013-05-10 11:15:00,67.8,63.0,29.74,SSW,198,3.0,-999.0,83,-99.99,,,0.26,weatherlink.com 1.10,2013-05-10 15:15:00,
2013-05-10 11:30:00,68.4,63.0,29.74,SW,215,10.0,-999.0,82,-99.99,,,0.26,weatherlink.com 1.10,2013-05-10 15:30:00,
2013-05-10 11:45:00,68.4,63.0,29.74,SW,226,5.0,-999.0,82,-99.99,,,0.26,weatherlink.com 1.10,2013-05-10 15:45:00,
2013-05-10 12:00:00,68.6,63.0,29.74,SW,215,9.0,-999.0,81,-99.99,,,0.26,weatherlink.com 1.10,2013-05-10 16:00:00,
2013-05-10 12:15:00,68.8,63.0,29.74,SW,224,5.0,-999.0,81,-99.99,,,0.26,weatherlink.com 1.10,2013-05-10 16:15:00,
2013-05-10 12:30:00,68.7,63.0,29.75,SW,225,7.0,-999.0,81,-99.99,,,0.26,weatherlink.com 1.10,2013-05-10 16:30:00,
2013-05-10 12:45:00,68.6,62.0,29.74,SSW,208,5.0,-999.0,80,-99.99,,,0.26,weatherlink.com 1.10,2013-05-10 16:45:00,
2013-05-10 13:00:00,69.1,63.0,29.73,SSW,212,8.0,-999.0,80,-99.99,,,0.26,weatherlink.com 1.10,2013-05-10 17:00:00,
2013-05-10 13:15:00,68.9,62.0,29.73,SW,221,7.0,-999.0,79,-99.99,,,0.26,weatherlink.com 1.10,2013-05-10 17:15:00,
2013-05-10 13:30:00,68.6,62.0,29.73,SW,219,4.0,-999.0,79,-99.99,,,0.26,weatherlink.com 1.10,2013-05-10 17:30:00,
2013-05-10 13:45:00,68.2,61.0,29.73,SW,235,7.0,-999.0,79,-99.99,,,0.26,weatherlink.com 1.10,2013-05-10 17:45:00,
2013-05-10 14:00:00,67.0,61.0,29.73,SW,229,6.0,-999.0,80,-99.99,,,0.28,weatherlink.com 1.10,2013-05-10 18:00:00,
2013-05-10 14:15:00,66.4,61.0,29.73,SE,136,0.0,-999.0,82,-99.99,,,0.28,weatherlink.com 1.10,2013-05-10 18:15:00,
2013-05-10 14:30:00,66.4,61.0,29.73,SW,232,10.0,-999.0,83,-99.99,,,0.28,weatherlink.com 1.10,2013-05-10 18:30:00,
2013-05-10 14:45:00,66.8,62.0,29.73,SSW,198,0.0,-999.0,83,-99.99,,,0.28,weatherlink.com 1.10,2013-05-10 18:45:00,
2013-05-10 15:00:00,66.9,62.0,29.72,SSW,195,10.0,-999.0,84,-99.99,,,0.28,weatherlink.com 1.10,2013-05-10 19:00:00,
2013-05-10 15:15:00,67.1,62.0,29.72,SW,215,3.0,-999.0,84,-99.99,,,0.28,weatherlink.com 1.10,2013-05-10 19:15:00,
2013-05-10 15:30:00,67.1,62.0,29.71,SW,229,6.0,-999.0,83,-99.99,,,0.28,weatherlink.com 1.10,2013-05-10 19:30:00,
2013-05-10 15:45:00,67.1,62.0,29.71,SW,226,1.0,-999.0,83,-99.99,,,0.28,weatherlink.com 1.10,2013-05-10 19:45:00,
2013-05-10 16:00:00,67.3,62.0,29.71,SW,227,3.0,-999.0,83,-99.99,,,0.28,weatherlink.com 1.10,2013-05-10 20:00:00,
2013-05-10 16:15:00,67.5,62.0,29.70,SW,235,10.0,-999.0,83,-99.99,,,0.28,weatherlink.com 1.10,2013-05-10 20:15:00,
2013-05-10 16:30:00,67.4,62.0,29.69,SSW,205,10.0,-999.0,83,-99.99,,,0.28,weatherlink.com 1.10,2013-05-10 20:30:00,
2013-05-10 16:45:00,66.9,62.0,29.68,SW,217,0.0,-999.0,83,-99.99,,,0.28,weatherlink.com 1.10,2013-05-10 20:45:00,
2013-05-10 17:00:00,66.6,61.0,29.68,SSW,211,3.0,-999.0,83,-99.99,,,0.28,weatherlink.com 1.10,2013-05-10 21:00:00,
2013-05-10 17:15:00,67.2,62.0,29.68,West,271,0.0,-999.0,83,-99.99,,,0.28,weatherlink.com 1.10,2013-05-10 21:15:00,
2013-05-10 17:30:00,67.6,62.0,29.68,WNW,288,2.0,-999.0,81,-99.99,,,0.28,weatherlink.com 1.10,2013-05-10 21:30:00,
2013-05-10 17:45:00,67.8,61.0,29.68,SSW,209,7.0,-999.0,80,-99.99,,,0.28,weatherlink.com 1.10,2013-05-10 21:45:00,
2013-05-10 18:00:00,67.9,61.0,29.68,SW,217,5.0,-999.0,79,-99.99,,,0.28,weatherlink.com 1.10,2013-05-10 22:00:00,
2013-05-10 18:15:00,67.8,61.0,29.67,SW,226,3.0,-999.0,78,-99.99,,,0.28,weatherlink.com 1.10,2013-05-10 22:15:00,
2013-05-10 18:30:00,68.2,61.0,29.67,WSW,250,3.0,-999.0,78,-99.99,,,0.28,weatherlink.com 1.10,2013-05-10 22:30:00,
2013-05-10 18:45:00,68.6,61.0,29.67,West,269,1.0,-999.0,77,-99.99,,,0.28,weatherlink.com 1.10,2013-05-10 22:45:00,
2013-05-10 19:00:00,68.2,61.0,29.67,WSW,247,0.0,-999.0,77,-99.99,,,0.28,weatherlink.com 1.10,2013-05-10 23:00:00,
2013-05-10 19:15:00,67.8,60.0,29.67,West,277,3.0,-999.0,77,-99.99,,,0.28,weatherlink.com 1.10,2013-05-10 23:15:00,
2013-05-10 19:30:00,67.3,60.0,29.68,West,279,2.0,-999.0,77,-99.99,,,0.28,weatherlink.com 1.10,2013-05-10 23:30:00,
2013-05-10 19:45:00,66.6,59.0,29.68,West,261,0.0,-999.0,77,-99.99,,,0.28,weatherlink.com 1.10,2013-05-10 23:45:00,
2013-05-10 20:00:00,66.2,59.0,29.68,WNW,290,0.0,-999.0,78,-99.99,,,0.28,weatherlink.com 1.10,2013-05-11 00:00:00,
2013-05-10 20:15:00,65.6,58.0,29.69,WSW,256,0.0,-999.0,77,-99.99,,,0.28,weatherlink.com 1.10,2013-05-11 00:15:00,
2013-05-10 20:30:00,65.1,58.0,29.70,SW,234,3.0,-999.0,77,-99.99,,,0.28,weatherlink.com 1.10,2013-05-11 00:30:00,
2013-05-10 20:45:00,64.5,57.0,29.71,NW,306,0.0,-999.0,77,-99.99,,,0.28,weatherlink.com 1.10,2013-05-11 00:45:00,
2013-05-10 21:00:00,63.4,56.0,29.71,West,261,1.0,-999.0,77,-99.99,,,0.28,weatherlink.com 1.10,2013-05-11 01:00:00,
2013-05-10 21:15:00,62.2,55.0,29.72,WNW,290,0.0,-999.0,77,-99.99,,,0.28,weatherlink.com 1.10,2013-05-11 01:15:00,
2013-05-10 21:30:00,61.5,55.0,29.73,WSW,253,0.0,-999.0,78,-99.99,,,0.28,weatherlink.com 1.10,2013-05-11 01:30:00,
2013-05-10 21:45:00,60.5,54.0,29.74,NNW,342,0.0,-999.0,78,-99.99,,,0.28,weatherlink.com 1.10,2013-05-11 01:45:00,
2013-05-10 22:00:00,59.3,52.0,29.75,North,349,0.0,-999.0,78,-99.99,,,0.28,weatherlink.com 1.10,2013-05-11 02:00:00,
2013-05-10 22:15:00,57.8,51.0,29.76,West,272,0.0,-999.0,79,-99.99,,,0.28,weatherlink.com 1.10,2013-05-11 02:15:00,
2013-05-10 22:30:00,56.8,50.0,29.76,North,349,5.0,-999.0,79,-99.99,,,0.28,weatherlink.com 1.10,2013-05-11 02:30:00,
2013-05-10 22:45:00,55.0,49.0,29.77,NW,319,4.0,-999.0,80,-99.99,,,0.28,weatherlink.com 1.10,2013-05-11 02:45:00,
2013-05-10 23:00:00,54.1,48.0,29.77,NNW,329,4.0,-999.0,81,-99.99,,,0.28,weatherlink.com 1.10,2013-05-11 03:00:00,
2013-05-10 23:15:00,52.8,47.0,29.77,NNW,335,2.0,-999.0,82,-99.99,,,0.28,weatherlink.com 1.10,2013-05-11 03:15:00,
2013-05-10 23:30:00,52.1,47.0,29.78,NNW,329,2.0,-999.0,83,-99.99,,,0.28,weatherlink.com 1.10,2013-05-11 03:30:00,
2013-05-10 23:45:00,51.7,47.0,29.78,NNW,342,4.0,-999.0,83,-99.99,,,0.28,weatherlink.com 1.10,2013-05-11 03:45:00,